TIME,DELAY(SENSOR),PRES,T(CTD),SAL,OXYGEN,RAWTEMP,T(OPTODE),TCPHASE,FLUOR,BETA(BETA700),BETA(BETA412),BETA(BETA440),CDOM,C(CSC),ED(ED411.90),ED(ED443.80),ED(ED489.40),ED(ED554.70),LU(LU412.20),LU(LU443.80),LU(LU489.40),LU(LU555.00),COMP,TILTX,TILTX(TILTY),CHECK
1345561764,5803,497.2399902343750000,17.5307998657226560,36.4762992858886700,235.8531951904297000,185.3061065673828000,17.5287094116210940,31.6748008728027340,50,106,97,83,67,15530,2147484873,2147766381,2147560502,2147800283,2147308416,2147479552,2147708525,2148241947,3108,7,13,14345
1345561885,5804,485.8599853515625000,17.5874996185302730,36.4863014221191400,236.3327941894531200,183.5005035400390600,17.5836601257324220,31.6273193359375000,50,108,98,83,67,15527,2147482413,2147769316,2147558198,2147796498,2147308544,2147481289,2147708845,2148243373,3564,7,13,57423
1345561995,5800,475.6799926757812500,17.6590003967285160,36.4978981018066400,236.4432067871093800,181.0749053955078000,17.6574802398681640,31.5891609191894530,49,110,98,83,66,15526,2147485860,2147765878,2147559506,2147796598,2147313453,2147477604,2147708653,2148242688,3131,7,13,55964
1345562118,5802,464.4599914550781000,17.7122001647949220,36.5078010559082000,236.5738983154297000,179.3829040527343800,17.7089805603027340,31.5601291656494140,50,107,98,83,65,15524,2147483318,2147765120,2147557156,2147795867,2147314358,2147480018,2147704749,2148241865,3424,7,13,35840
1345562239,5801,453.5599975585937500,17.7614994049072270,36.5167007446289060,236.5758972167968800,177.6723937988281200,17.7610397338867200,31.5368499755859380,50,106,99,83,66,15525,2147482038,2147765412,2147557330,2147793572,2147307446,2147476708,2147707282,2148245147,2729,7,12,58645
1345562363,5803,442.3999938964844000,17.8122997283935550,36.5256004333496100,237.0585937500000000,176.0556945800781200,17.8102607727050780,31.4919700622558600,49,107,98,84,65,15526,2147483986,2147767149,2147557220,2147793810,2147305051,2147477513,2147706633,2148240466,3554,7,13,7193
1345562484,5806,431.8599853515625000,17.8696002960205080,36.5360984802246100,237.9255065917968800,174.1365966796875000,17.8686790466308600,31.4249095916748050,50,107,97,83,64,15527,2147485677,2147763181,2147557970,2147795245,2147312822,2147479314,2147708544,2148241097,360,7,12,5550
1345562616,5804,420.6199951171875000,17.9412002563476560,36.5474014282226560,239.1439056396484400,171.7893981933593800,17.9401397705078120,31.3356800079345700,50,107,99,83,67,15524,2147482038,2147766500,2147557165,2147792649,2147316086,2147475072,2147709522,2148240036,728,7,13,11448
1345562750,5805,409.3399963378906000,17.9911994934082030,36.5518989562988300,239.0834045410156200,170.2554931640625000,17.9868507385253900,31.3181190490722660,50,107,98,83,66,15526,2147486299,2147763968,2147557933,2147793755,2147314605,2147481938,2147704091,2148239762,850,7,13,6925
1345562882,5805,398.6300048828125000,18.0356998443603500,36.5565986633300800,237.9024047851562500,168.7790985107422000,18.0318107604980470,31.3538398742675780,50,109,98,82,65,15525,2147484635,2147766290,2147556050,2147793508,2147313051,2147483017,2147708050,2148241664,1375,8,13,11258
1345563017,5803,387.4500122070312500,18.0671997070312500,36.5626983642578100,237.5496063232422000,167.7095947265625000,18.0643806457519530,31.3564300537109380,50,109,99,83,66,15523,2147482642,2147765641,2147556452,2147791917,2147310363,2147481453,2147706605,2148241426,1254,7,13,32630
1345563149,5803,376.4200134277344000,18.1268005371093750,36.5694999694824200,236.9463958740234400,165.7729034423828000,18.1233596801757800,31.3590507507324220,50,108,99,84,66,15524,2147485632,2147765650,2147557120,2147793490,2147308324,2147481691,2147705728,2148237805,960,7,13,48070
1345563284,5804,365.0799865722656000,18.1823997497558600,36.5750007629394500,236.3032073974609400,163.9797058105468800,18.1779804229736330,31.3656902313232420,50,108,98,83,66,15520,2147485046,2147766006,2147555894,2147794550,2147307638,2147481435,2147702336,2148241554,1058,7,13,7614
1345563405,5805,354.7699890136719000,18.2332992553710940,36.5801010131835940,235.2041015625000000,162.0838012695312500,18.2357292175292970,31.3927993774414060,50,110,98,83,67,15522,2147484041,2147763629,2147554569,2147792530,2147312128,2147479405,2147704466,2148242340,1591,7,12,5266
1345563537,5799,343.4700012207031000,18.3020000457763670,36.5894012451171900,235.1300964355468800,160.0570983886718800,18.2974796295166000,31.3692207336425780,50,107,100,83,66,15523,2147487131,2147765412,2147560283,2147792667,2147308562,2147478646,2147704667,2148239734,1470,7,12,15406
1345563671,5802,332.0100097656250000,18.3448009490966800,36.5933990478515600,234.5207977294922000,158.5395965576172000,18.3437194824218750,31.3782100677490230,50,108,97,85,65,15522,2147489600,2147765284,2147557540,2147792566,2147315044,2147480722,2147703433,2148242688,2524,7,13,2527
1345563803,5802,321.1000061035156000,18.3892993927001950,36.5974006652832000,233.7673034667968800,156.9183959960937500,18.3931198120117200,31.3928699493408200,50,110,99,85,67,15520,2147482230,2147761609,2147558701,2147790372,2147315245,2147477906,2147706057,2148240073,3275,7,13,2679
1345563938,5804,310.5100097656250000,18.4755001068115230,36.6049003601074200,232.4272003173828000,154.2487030029297000,18.4744796752929700,31.4218406677246100,50,110,99,84,67,15521,2147486784,2147763190,2147557952,2147790848,2147306587,2147481334,2147704612,2148238985,3407,7,13,9487
1345564081,5803,299.9400024414062500,18.5951004028320300,36.6091995239257800,229.9564971923828000,150.5009002685547000,18.5887203216552730,31.4921703338623050,50,109,98,84,66,15518,2147486180,2147767241,2147565449,2147790198,2147321691,2147478573,2147706898,2148238500,3221,7,13,23650
1345564258,5804,285.6099853515625000,18.7938003540039060,36.6254997253418000,227.0379028320312500,143.9736938476562500,18.7877502441406250,31.5492591857910160,55,115,99,83,66,15512,2147491638,2147764571,2147570907,2147793051,2147305234,2147486802,2147709019,2148239040,345,8,12,39941
1345564368,5805,274.8900146484375000,18.9402999877929700,36.6339988708496100,225.8786010742187500,138.8538055419922000,18.9439296722412100,31.5382595062255860,58,112,98,84,66,15510,2147486848,2147767460,2147577929,2147792320,2147299721,2147480749,2147719616,2148238427,365,8,13,35187
1345564478,5805,264.2200012207031000,18.9895992279052730,36.6134986877441400,230.3426971435547000,136.8990936279297000,19.0035800933837900,31.2915592193603500,52,111,99,84,66,15515,2147490112,2147767396,2147589696,2147791853,2147312868,2147482706,2147716635,2148237824,616,6,12,36660
1345564601,5802,252.6499938964843800,19.2222995758056640,36.6338005065918000,231.3874969482422000,129.5343017578125000,19.2283802032470700,31.1428298950195300,58,111,99,84,66,15512,2147492004,2147775030,2147602121,2147793408,2147306605,2147488064,2147728018,2148237110,3463,6,12,24573
1345564711,5804,242.5299987792968800,19.3365993499755860,36.6036987304687500,242.5643005371093800,125.9955978393554700,19.3364505767822270,30.5698795318603500,57,115,100,84,64,15509,2147491593,2147780288,2147618276,2147790454,2147312502,2147492681,2147734829,2148239506,41,7,12,400
1345564835,5806,231.3699951171875000,19.3526000976562500,36.5754013061523440,251.4420013427734400,125.4203033447265600,19.3540191650390620,30.1643791198730470,62,118,99,85,64,15498,2147489197,2147784146,2147647094,2147790162,2147313078,2147495478,2147745499,2148237613,82,7,12,35087
1345564956,5806,220.5399932861328000,19.4141006469726560,36.5797004699707000,252.4962005615234400,123.5323028564453100,19.4116897583007800,30.0938091278076170,72,119,99,84,63,15493,2147492306,2147789897,2147661284,2147789257,2147317979,2147498084,2147749458,2148237540,406,7,12,257
1345565077,5803,209.5700073242187500,19.4839992523193360,36.5895996093750000,251.9832000732422000,121.3013000488281200,19.4798603057861330,30.0872993469238280,77,120,99,85,64,15488,2147491986,2147810413,2147741641,2147790363,2147316032,2147507492,2147793984,2148242395,901,7,12,20345
1345565201,5805,198.3200073242187500,19.5958995819091800,36.5998992919921900,252.2911071777343800,117.6958999633789000,19.5900402069091800,30.0271396636962900,84,120,100,85,66,15482,2147501641,2147841106,2147840530,2147789741,2147314724,2147523273,2147837851,2148242706,1349,7,12,2964
1345565256,5803,193.4700012207031200,19.6842002868652340,36.6104011535644500,252.8247985839843800,114.8688964843750000,19.6764602661132800,29.9675407409667970,85,119,100,83,66,15482,2147504073,2147859940,2147897600,2147789750,2147311524,2147533613,2147858496,2148243894,1334,7,12,6036
1345565311,5802,188.7899932861328000,19.7549991607666000,36.6095008850097660,254.9203948974609400,112.0632019042968800,19.7622509002685550,29.8408298492431640,78,117,100,85,66,15483,2147507611,2147881810,2147962806,2147791469,2147322669,2147541330,2147892059,2148246829,1132,7,12,33648
1345565366,5805,184.1499938964843800,19.9554004669189450,36.6403999328613300,252.9537048339843800,106.0024032592773400,19.9476604461669920,29.8476905822753900,83,117,101,86,65,15489,2147515968,2147915236,2148057910,2147788425,2147318582,2147558720,2147927670,2148246509,1141,7,12,36368
1345565421,5804,179.7400054931640600,20.0974006652832030,36.6516990661621100,253.1988067626953000,101.4727020263671900,20.0863094329834000,29.7791309356689450,78,117,98,86,66,15489,2147504859,2147851026,2147837010,2147789641,2147313883,2147527058,2147832365,2148240548,1013,7,12,34975
1345565495,5804,174.4600067138672000,20.1359996795654300,36.6548004150390600,254.3542938232422000,99.9440383911132800,20.1331100463867200,29.7097301483154300,77,116,99,83,66,15484,2147527131,2147979172,2148226413,2147790390,2147320731,2147581924,2148003108,2148253211,1372,7,12,28820
1345565550,5803,170.9600067138672000,20.2024993896484380,36.6613006591796900,254.6661987304687500,97.8324203491211000,20.1977806091308600,29.6692409515380860,72,118,101,84,67,15489,2147532882,2148018523,2148321106,2147788416,2147325970,2147602029,2148039177,2148255003,1433,8,13,45613
1345565616,5804,166.8899993896484400,20.3185005187988280,36.6823997497558600,255.0717010498047000,94.1682662963867200,20.3100204467773440,29.6049995422363280,77,115,100,84,64,15492,2147553920,2148089618,2148510729,2147787154,2147328320,2147634788,2148127451,2148260818,1778,7,13,33996
1345565682,5803,162.9400024414062500,20.5013008117675780,36.6991996765136700,257.2615051269531000,88.0167312622070300,20.4985694885253900,29.4337406158447270,73,117,98,84,66,15489,2147563072,2148141787,2148632603,2147787721,2147341001,2147661028,2148177682,2148264128,2010,7,13,61047
1345565748,5802,159.1799926757812500,20.6389999389648440,36.7134017944335940,259.1521911621094000,83.7966308593750000,20.6280002593994140,29.3007907867431640,73,118,99,86,64,15482,2147584045,2148222180,2148827483,2147791588,2147347529,2147702445,2148272630,2148269677,2017,7,13,4087
1345565825,5803,155.2100067138672000,20.7049007415771500,36.7158012390136700,260.6178894042969000,81.2415618896484400,20.7063903808593750,29.2073593139648440,74,121,100,86,63,15484,2147603629,2148284315,2148957485,2147790464,2147359579,2147734628,2148337472,2148272164,1920,7,13,29082
1345565913,5801,151.5899963378906200,20.7975997924804700,36.7187995910644500,261.8026123046875000,78.8857421875000000,20.7786903381347660,29.1286201477050780,71,119,100,86,61,15481,2147602898,2148237010,2148797339,2147794560,2147362651,2147723373,2148284827,2148266249,1771,7,12,38909
1345566012,5806,147.6399993896484400,20.7875003814697270,36.6995010375976560,264.1236877441406000,78.5812530517578100,20.7880401611328120,29.0294303894042970,71,120,100,86,61,15470,2147597229,2148177206,2148595684,2147790774,2147357613,2147690770,2148174006,2148261293,2573,8,13,6299
1345566114,5805,143.8500061035156200,20.7761993408203120,36.6809005737304700,268.0407104492187500,79.0474166870117200,20.7737293243408200,28.8766307830810550,67,121,100,86,62,15471,2147689974,2148564928,2149650825,2147794669,2147395830,2147898788,2148686400,2148294336,73,7,12,61765
1345566246,5803,140.5200042724609400,21.0247001647949220,36.7162017822265600,255.9586029052734400,72.3743362426757800,20.9786396026611330,29.2909507751464840,68,114,99,88,63,15486,2147593737,2148124827,2148438345,2147787282,2147359232,2147682706,2148136448,2148260946,2775,7,12,27699
1345566486,5801,136.0599975585937500,21.0755004882812500,36.7154006958007800,240.1638031005859400,69.3334274291992200,21.0720806121826170,29.9462890625000000,64,113,98,86,65,15498,2147791524,2148826404,2150189586,2147800493,2147445330,2148059995,2148990390,2148313892,3396,7,13,51857
1345566607,5804,131.9100036621093800,21.1914005279541000,36.7084007263183600,240.0935058593750000,65.6510925292968800,21.1852703094482420,29.9022293090820300,69,116,99,86,65,15497,2147873472,2149026779,2150602276,2147808786,2147479808,2148176045,2149212635,2148325988,3094,8,12,50381
1345566741,5804,126.6399993896484400,21.4067993164062500,36.7295989990234400,236.0106048583984400,58.5815696716308600,21.4027500152587900,29.9996299743652340,71,114,98,84,64,15498,2148006564,2149344502,2151286116,2147818477,2147543241,2148352658,2149555044,2148350208,2391,7,13,55807
1345566818,5804,122.4000015258789000,21.4626007080078120,36.7271003723144500,235.5330047607422000,56.4954185485839840,21.4669704437255860,29.9953498840332030,73,115,98,85,65,15496,2148198793,2149816923,2152304246,2147834596,2147620854,2148611108,2150056585,2148387867,2312,7,13,12679
1345566895,5802,118.3300018310546900,21.5296993255615230,36.7210006713867200,236.2877960205078000,54.5516815185546900,21.5268192291259770,29.9355792999267580,80,117,99,84,65,15492,2148331904,2150064658,2152734976,2147847058,2147676955,2148723501,2150235318,2148398326,2299,7,12,50515
1345566972,5801,114.8300018310546900,21.7031993865966800,36.7016983032226560,238.0364990234375000,49.1867103576660160,21.6921005249023440,29.7863807678222660,90,120,99,86,64,15482,2148553225,2150529965,2153656539,2147873700,2147772498,2148955318,2150667785,2148435510,1813,7,13,16797
1345567084,5800,111.2300033569336000,21.8640003204345700,36.6237983703613300,244.6056976318359400,44.1655693054199200,21.8469104766845700,29.4264907836914060,85,122,100,86,62,15463,2148726985,2150797549,2154111798,2147889993,2147836946,2149071625,2150844534,2148453677,1859,8,12,43036
1345567260,5804,107.2699966430664000,22.0240001678466800,36.6002998352050800,253.0957946777343800,40.4007301330566400,21.9630603790283200,29.0104408264160160,79,122,101,86,64,15460,2148863451,2150965229,2154227410,2147903433,2147897526,2149128320,2150837211,2148456137,2892,8,13,2590
1345567394,5805,102.9400024414062500,22.3621006011962900,36.5773010253906250,259.8977966308594000,29.3105506896972660,22.3056106567382800,28.5879402160644530,70,124,101,88,62,15455,2149227465,2151677824,2155663515,2147962907,2148066486,2149485184,2151442112,2148514029,558,7,13,15759
1345567737,5803,99.6399993896484400,23.1086006164550780,36.5870018005371100,264.8192138671875000,4.3273949623107910,23.0796203613281250,28.0809993743896500,86,126,102,88,60,15430,2149516425,2152210596,2156856100,2148000018,2148275126,2149939565,2152282084,2148577810,201,7,12,43863
1345567924,5804,97.4700012207031200,23.3640995025634770,36.5835990905761700,253.0601043701172000,-2.4294819831848145,23.2895507812500000,28.4799995422363280,110,131,100,88,62,15423,2149893110,2152979593,2158458633,2148071762,2148425408,2150250221,2152875373,2148630729,2405,8,12,29738
1345568023,5804,95.0100021362304700,23.4538002014160160,36.5782012939453100,247.1625976562500000,-7.6856732368469240,23.4530391693115230,28.6663093566894530,123,134,100,88,63,15415,2150174747,2153375213,2158910939,2148104777,2148529956,2150401307,2153072448,2148653878,2809,7,13,2284
1345568089,5803,93.0699996948242200,23.6825008392334000,36.5937004089355500,243.3327941894531200,-10.8419399261474610,23.5512905120849600,28.7941493988037100,140,138,102,88,64,15392,2150733659,2154384557,2160633645,2148169444,2148711058,2150750390,2153677915,2148711286,2888,8,12,37102
1345568310,5805,91.3000030517578100,24.0196990966796880,36.5942993164062500,222.2496948242187500,-25.2254905700683600,23.9998092651367200,29.5899105072021500,159,146,101,90,65,15356,2151760749,2156127314,2163427437,2148264694,2148995611,2151201746,2154436553,2148804571,732,8,12,42587
1345568376,5805,89.0299987792968800,24.2430000305175780,36.5264015197753900,220.9319000244140600,-31.2155494689941400,24.1869907379150400,29.5788002014160160,169,141,101,89,64,15349,2152564233,2157399076,2165263058,2148349174,2149231835,2151548745,2154971181,2148872210,776,8,12,18663
1345568442,5804,87.1699981689453100,24.2880992889404300,36.5228996276855500,225.8881072998047000,-33.7505607604980500,24.2662696838378900,29.3070907592773440,178,144,102,88,65,15333,2153299885,2158585517,2166989805,2148432896,2149467693,2151936932,2155570377,2148942784,950,8,12,52048
1345568552,5803,85.8499984741211000,24.3218994140625000,36.5168991088867200,228.8401947021484400,-34.9869804382324200,24.3049602508544920,29.1517105102539060,179,143,101,89,65,15339,2153884214,2159572580,2168482770,2148503241,2149652818,2152241773,2156045110,2148999936,720,8,12,22274
1345568696,5803,83.0299987792968800,24.5960006713867200,36.4893989562988300,231.4120025634765600,-43.9150810241699200,24.5846099853515620,28.9206199645996100,178,146,101,88,64,15305,2155641737,2162379547,2172235291,2148685723,2150080539,2152774592,2156897563,2149132937,3152,8,12,62157
1345568762,5802,81.4199981689453100,24.7642993927001950,36.4777984619140600,231.2559967041015600,-46.9398689270019500,24.6794700622558600,28.8899593353271500,173,148,102,90,64,15319,2156559350,2163872886,2174301037,2148804342,2150328420,2153145846,2157490834,2149210953,2883,8,12,9019
1345568894,5803,79.8300018310546900,24.9309005737304700,36.4939994812011700,226.4248046875000000,-54.6260299682617200,24.9208202362060550,29.0202903747558600,187,146,103,88,65,15310,2157203126,2165026770,2176057572,2148884150,2150507858,2153412077,2157880740,2149278948,171,8,12,51820
1345569048,5801,77.2099990844726600,25.2835998535156250,36.4728012084960940,219.1696014404297000,-63.6388092041015600,25.2043704986572270,29.2571105957031250,133,148,103,91,66,15320,2161181019,2171188598,2184065380,2149301065,2151495049,2154954550,2160391232,2149608338,2747,8,12,24163
1345569136,5803,75.6100006103515600,25.3090000152587900,36.4663009643554700,218.4582977294922000,-66.6863021850586000,25.3003807067871100,29.2538299560546880,126,144,101,89,65,15334,2163189860,2174099510,2187552173,2149523648,2152076297,2155812160,2161462153,2149776100,139,8,12,38399
1345569281,5804,72.9100036621093800,25.3906993865966800,36.4376983642578100,218.2339019775390600,-69.2825927734375000,25.3822307586669920,29.2321605682373050,117,142,103,91,63,15336,2166876205,2178696201,2191866048,2149836068,2153281728,2157540534,2163618002,2150058998,431,8,12,43201
1345569336,5802,70.9599990844726600,25.5032005310058600,36.4299011230468750,217.9441070556640600,-73.2286834716796900,25.5067291259765620,29.1969509124755860,109,142,101,89,65,15343,2170318464,2183006482,2196264621,2150183725,2154337106,2159000128,2165331337,2150295378,277,7,12,3911
1345569391,5804,69.1200027465820300,25.5645999908447270,36.4211997985839840,216.9107055664062500,-74.8374633789062500,25.5575294494628900,29.2279205322265620,96,140,104,90,64,15347,2173695835,2187069120,2200296118,2150523026,2155322678,2160383698,2166965449,2150534272,3575,8,12,33565
1345569457,5803,67.1500015258789000,25.6229000091552730,36.4051017761230500,216.3811950683593800,-76.7773666381836000,25.6187992095947270,29.2297592163085940,92,140,103,92,65,15351,2177943241,2192014610,2205250715,2150967908,2156742427,2162334272,2169289636,2150854994,51,8,12,16747
1345569534,5804,65.2600021362304700,25.7196006774902340,36.3950996398925800,216.1448974609375000,-79.6789169311523400,25.7105007171630860,29.2049598693847660,87,143,104,93,64,15359,2182395940,2197179373,2210416411,2151449709,2158376722,2164529069,2171768941,2151214875,420,8,12,64120
1345569611,5803,63.0400009155273440,25.8528995513916000,36.3795013427734400,215.2689971923828000,-84.0936431884765600,25.8501491546630860,29.1931591033935550,84,139,102,89,66,15350,2190140160,2205270482,2217709979,2152275035,2160775040,2167648914,2175215387,2151690614,3006,8,12,16631
1345569666,5802,60.9599990844726560,25.9323005676269530,36.3546981811523440,216.1990966796875000,-86.0933532714843800,25.9134502410888670,29.1220092773437500,79,141,104,92,61,15352,2197466752,2212786550,2224720054,2153006482,2163605915,2171095533,2178986121,2152268864,1826,8,12,33071
1345569721,5802,59.2299995422363300,25.9160995483398440,36.3100013732910160,219.0547943115234400,-86.1793975830078100,25.9161796569824220,28.9805507659912100,77,141,103,90,67,15360,2204360073,2220162880,2231928996,2153876361,2166446400,2174395894,2182240457,2152759744,1890,8,12,28444
1345569798,5804,57.5299987792968750,26.1240005493164060,36.2955017089843750,225.9945068359375000,-91.0947189331054700,26.0719299316406250,28.5874099731445300,75,142,105,91,59,15351,2209394642,2224964278,2235522678,2154277668,2170161234,2178519168,2186027620,2153257545,1857,8,12,29758
1345569986,5803,55.2999992370605500,26.2719993591308600,36.2492980957031250,234.9869995117187500,-96.6791763305664000,26.2491092681884770,28.1061401367187500,73,141,104,92,59,15346,2221871625,2237515556,2246633764,2155786788,2178688612,2187485714,2193596580,2154256557,2538,8,12,18984
1345570139,5804,52.1899986267089840,26.6979999542236330,36.2246017456054700,237.0157012939453000,-110.2618026733398400,26.6811408996582030,27.8498096466064450,70,147,105,91,64,15337,2234540845,2250676900,2259336027,2157794285,2186973037,2196271561,2201265846,2155355492,3005,8,12,58926
1345570267,5804,50.6699981689453100,26.8409004211425780,36.2000007629394500,238.8878936767578000,-115.1733016967773400,26.8377494812011720,27.7076091766357420,71,142,102,91,61,15330,2240984512,2256875620,2265317293,2159227940,2192200566,2201430592,2205695597,2156111945,2338,8,12,50831
1345570360,5804,48.7099990844726560,26.8864994049072270,36.1949005126953100,239.5151062011718800,-117.2926025390625000,26.9053897857666000,27.6545600891113280,67,143,102,91,60,15336,2250005696,2266323419,2274999707,2161057325,2199993572,2209587675,2212897088,2157209014,2266,8,12,33654
1345570465,5802,46.8600006103515600,27.0907993316650400,36.1626014709472660,239.6125030517578000,-122.5554962158203100,27.0735397338867200,27.5862903594970700,68,145,104,92,57,15326,2258422848,2275482093,2284403821,2163343469,2205338121,2214715565,2216855680,2157937453,3049,7,12,18523
1345570580,5804,44.8400001525878900,27.3978996276855470,36.1178016662597660,239.0713043212890600,-131.3269958496093800,27.3543205261230470,27.5032501220703120,67,147,105,94,56,15325,2264699904,2280794422,2288676809,2164901650,2213470491,2222420946,2222796324,2158906240,3376,8,12,60045
1345570899,5803,42.7999992370605500,27.6189994812011720,36.0777015686035160,239.1056976318359400,-139.9635925292968800,27.6314697265625000,27.3969097137451170,63,144,106,93,61,15334,2275627876,2291045796,2298066221,2167296566,2226781065,2235605531,2233744192,2160649874,3038,8,12,33006
1345571004,5803,40.8100013732910160,27.6728000640869140,36.0640983581543000,239.2008972167968800,-141.2962951660156200,27.6742992401123050,27.3765792846679700,62,142,104,92,55,15346,2287992155,2303207853,2310211876,2171023186,2239032091,2247509275,2243124397,2162331675,3038,8,12,54044
1345571109,5802,38.9500007629394500,27.9372005462646500,35.9948997497558600,237.8023071289062500,-149.4689025878906200,27.9372997283935550,27.3382396697998050,62,148,102,91,56,15349,2297114752,2312132726,2319300452,2174099136,2250174857,2258213888,2252300269,2164036992,2868,7,12,23087
1345571261,5804,36.7799987792968750,28.0807991027832030,35.9560012817382800,235.6215057373047000,-154.0494995117187500,28.0849895477294920,27.3780498504638670,60,142,102,93,58,15359,2305099629,2318860964,2326311945,2177946944,2262384128,2268623131,2260138852,2165952365,1813,8,12,40824